TimeEDT,TemperatureF,Dew PointF,Humidity,Sea Level PressureIn,VisibilityMPH,Wind Direction,Wind SpeedMPH,Gust SpeedMPH,PrecipitationIn,Events,Conditions,WindDirDegrees,DateUTC
12:15 AM,49.3,32.4,52,30.15,10.0,WNW,13.8,18.4,N/A,,Clear,290,2013-05-26 04:15:00
12:35 AM,48.7,32.9,54,30.15,10.0,WNW,11.5,-,N/A,,Clear,300,2013-05-26 04:35:00
12:55 AM,48.4,33.3,56,30.15,10.0,WNW,9.2,-,N/A,,Clear,290,2013-05-26 04:55:00
1:15 AM,48.2,33.4,57,30.15,10.0,WNW,10.4,-,N/A,,Clear,290,2013-05-26 05:15:00
1:35 AM,47.3,33.8,59,30.15,10.0,WNW,6.9,-,N/A,,Clear,290,2013-05-26 05:35:00
1:55 AM,46.8,33.6,60,30.15,10.0,WNW,5.8,-,N/A,,Clear,290,2013-05-26 05:55:00
2:15 AM,46.4,33.3,60,30.15,10.0,Calm,Calm,-,N/A,,Clear,0,2013-05-26 06:15:00
2:35 AM,45.7,33.3,62,30.15,10.0,WNW,6.9,-,N/A,,Clear,290,2013-05-26 06:35:00
2:55 AM,44.4,33.3,65,30.14,10.0,West,3.5,-,N/A,,Clear,260,2013-05-26 06:55:00
3:15 AM,42.1,33.8,72,30.14,10.0,WSW,6.9,-,N/A,,Clear,240,2013-05-26 07:15:00
3:35 AM,42.4,33.8,71,30.14,10.0,West,3.5,-,N/A,,Clear,260,2013-05-26 07:35:00
3:55 AM,41.5,34.0,75,30.14,10.0,SW,5.8,-,N/A,,Clear,220,2013-05-26 07:55:00
4:15 AM,40.5,34.0,78,30.14,10.0,SW,4.6,-,N/A,,Clear,220,2013-05-26 08:15:00
4:35 AM,41.0,34.0,76,30.15,10.0,SW,5.8,-,N/A,,Clear,230,2013-05-26 08:35:00
4:55 AM,41.0,34.0,76,30.15,10.0,SSW,5.8,-,N/A,,Clear,210,2013-05-26 08:55:00
5:15 AM,40.6,34.0,77,30.16,10.0,SSW,5.8,-,N/A,,Clear,200,2013-05-26 09:15:00
5:35 AM,41.2,33.8,75,30.17,10.0,SW,8.1,-,N/A,,Clear,220,2013-05-26 09:35:00
5:53 AM,41.0,33.8,76,30.17,10.0,SSW,6.9,-,N/A,,Clear,210,2013-05-26 09:53:00
6:53 AM,42.8,33.8,70,30.19,10.0,WSW,6.9,-,N/A,,Clear,240,2013-05-26 10:53:00
7:53 AM,46.4,35.6,66,30.20,10.0,West,5.8,-,N/A,,Clear,260,2013-05-26 11:53:00
8:53 AM,50.0,35.6,58,30.21,10.0,NW,9.2,-,N/A,,Clear,310,2013-05-26 12:53:00
9:53 AM,53.6,32.0,44,30.20,10.0,NW,11.5,20.7,N/A,,Partly Cloudy,320,2013-05-26 13:53:00
10:53 AM,57.2,30.2,36,30.18,10.0,NNW,11.5,25.3,N/A,,Partly Cloudy,330,2013-05-26 14:53:00
11:53 AM,59.0,30.2,34,30.18,10.0,NW,9.2,25.3,N/A,,Partly Cloudy,310,2013-05-26 15:53:00
12:53 PM,62.6,30.2,30,30.18,10.0,NW,13.8,25.3,N/A,,Partly Cloudy,320,2013-05-26 16:53:00
1:53 PM,64.4,30.2,28,30.16,10.0,NW,10.4,24.2,N/A,,Partly Cloudy,320,2013-05-26 17:53:00
2:53 PM,66.2,28.4,24,30.15,10.0,NNW,9.2,21.9,N/A,,Partly Cloudy,330,2013-05-26 18:53:00
3:53 PM,66.2,26.6,23,30.15,10.0,NW,12.7,24.2,N/A,,Clear,320,2013-05-26 19:53:00
4:53 PM,68.0,26.6,21,30.14,10.0,NW,13.8,20.7,N/A,,Clear,320,2013-05-26 20:53:00
5:53 PM,66.2,24.8,21,30.15,10.0,WNW,13.8,21.9,N/A,,Clear,290,2013-05-26 21:53:00
6:53 PM,66.2,24.8,21,30.15,10.0,NW,12.7,19.6,N/A,,Clear,310,2013-05-26 22:53:00
7:53 PM,62.6,24.8,24,30.17,10.0,WNW,15.0,-,N/A,,Clear,300,2013-05-26 23:53:00
8:53 PM,59.0,26.6,29,30.18,10.0,WNW,9.2,-,N/A,,Clear,300,2013-05-27 00:53:00
9:15 PM,58.6,27.3,30,30.19,10.0,NNW,9.2,-,N/A,,Clear,340,2013-05-27 01:15:00
9:35 PM,57.9,27.9,32,30.20,10.0,NW,4.6,-,N/A,,Clear,320,2013-05-27 01:35:00
9:55 PM,57.4,28.4,33,30.20,10.0,NW,5.8,-,N/A,,Clear,320,2013-05-27 01:55:00
10:15 PM,56.3,28.4,34,30.22,10.0,NNW,3.5,-,N/A,,Clear,330,2013-05-27 02:15:00
10:35 PM,56.3,28.4,34,30.22,10.0,NW,3.5,-,N/A,,Clear,320,2013-05-27 02:35:00
10:55 PM,54.7,29.8,39,30.23,10.0,Calm,Calm,-,N/A,,Clear,0,2013-05-27 02:55:00
11:15 PM,51.8,31.3,46,30.23,10.0,Calm,Calm,-,N/A,,Clear,0,2013-05-27 03:15:00
11:35 PM,52.2,30.2,43,30.23,10.0,Calm,Calm,-,N/A,,Clear,0,2013-05-27 03:35:00
11:55 PM,51.8,30.9,45,30.24,10.0,Calm,Calm,-,N/A,,Clear,0,2013-05-27 03:55:00